TimeEDT,TemperatureF,Dew PointF,Humidity,Sea Level PressureIn,VisibilityMPH,Wind Direction,Wind SpeedMPH,Gust SpeedMPH,PrecipitationIn,Events,Conditions,WindDirDegrees,DateUTC
12:53 AM,66.9,60.1,79,30.13,8.0,Calm,Calm,-,N/A,,Clear,0,2013-07-31 04:53:00
1:53 AM,66.9,60.1,79,30.12,8.0,Calm,Calm,-,N/A,,Clear,0,2013-07-31 05:53:00
3:53 AM,66.9,61.0,81,30.10,6.0,Calm,Calm,-,0.00,,Haze,0,2013-07-31 07:53:00
4:53 AM,68.0,62.1,81,30.09,8.0,Calm,Calm,-,N/A,,Overcast,0,2013-07-31 08:53:00
5:53 AM,68.0,62.1,81,30.09,7.0,Calm,Calm,-,N/A,,Overcast,0,2013-07-31 09:53:00
6:53 AM,68.0,63.0,84,30.09,4.0,Calm,Calm,-,0.00,,Haze,0,2013-07-31 10:53:00
7:53 AM,71.1,63.0,75,30.09,8.0,Calm,Calm,-,N/A,,Overcast,0,2013-07-31 11:53:00
8:53 AM,72.0,63.0,73,30.08,10.0,South,5.8,-,N/A,,Overcast,180,2013-07-31 12:53:00
9:53 AM,73.0,62.1,68,30.08,10.0,SSW,4.6,-,N/A,,Overcast,210,2013-07-31 13:53:00
10:53 AM,73.0,61.0,66,30.07,10.0,South,3.5,-,N/A,,Overcast,190,2013-07-31 14:53:00
11:53 AM,75.0,63.0,66,30.06,10.0,Variable,4.6,-,0.00,,Overcast,0,2013-07-31 15:53:00
12:53 PM,77.0,63.0,62,30.04,10.0,SSE,4.6,-,0.00,Rain,Light Rain,160,2013-07-31 16:53:00
1:53 PM,77.0,62.1,60,30.01,10.0,SE,4.6,-,0.00,,Overcast,140,2013-07-31 17:53:00
2:53 PM,77.0,64.0,64,29.99,10.0,East,4.6,-,N/A,,Overcast,100,2013-07-31 18:53:00
3:53 PM,75.9,64.9,69,29.97,9.0,SSE,6.9,-,0.00,Rain,Light Rain,150,2013-07-31 19:53:00
4:53 PM,73.9,66.9,79,29.96,5.0,ESE,6.9,-,0.01,Rain,Light Rain,120,2013-07-31 20:53:00
5:53 PM,73.9,66.9,79,29.94,4.0,SE,3.5,-,0.00,Rain,Light Rain,140,2013-07-31 21:53:00
6:21 PM,73.4,66.2,78,29.95,6.0,South,5.8,-,0.00,,Haze,180,2013-07-31 22:21:00
6:35 PM,73.4,66.2,78,29.95,6.0,SSW,6.9,-,0.00,,Haze,200,2013-07-31 22:35:00
6:53 PM,73.9,66.9,79,29.92,4.0,SSW,4.6,-,0.01,Rain,Light Rain,210,2013-07-31 22:53:00
7:18 PM,73.4,66.2,78,29.94,4.0,South,3.5,-,0.00,Rain,Light Rain,190,2013-07-31 23:18:00
7:23 PM,73.4,64.4,73,29.93,2.5,South,4.6,-,0.01,Rain,Light Rain,190,2013-07-31 23:23:00
7:36 PM,73.4,66.2,78,29.93,4.0,Calm,Calm,-,0.01,Rain,Light Rain,0,2013-07-31 23:36:00
7:53 PM,73.0,66.9,81,29.91,5.0,SSW,3.5,-,0.01,,Haze,200,2013-07-31 23:53:00
8:07 PM,73.4,66.2,78,29.93,5.0,SSW,3.5,-,N/A,,Haze,200,2013-08-01 00:07:00
8:27 PM,73.4,66.2,78,29.93,2.5,SW,6.9,-,0.01,Rain,Light Rain,230,2013-08-01 00:27:00
8:39 PM,73.4,64.4,73,29.93,4.0,SW,8.1,-,0.01,Rain,Light Rain,230,2013-08-01 00:39:00
8:45 PM,71.6,64.4,78,29.93,4.0,SW,6.9,-,0.01,Rain,Light Rain,230,2013-08-01 00:45:00
8:50 PM,71.6,64.4,78,29.93,4.0,SW,9.2,-,0.01,Rain,Light Rain,220,2013-08-01 00:50:00
8:53 PM,72.0,66.0,81,29.91,4.0,SW,8.1,-,0.01,Rain,Light Rain,230,2013-08-01 00:53:00
9:02 PM,71.6,66.2,83,29.93,4.0,SW,8.1,-,0.00,Rain,Light Rain,230,2013-08-01 01:02:00
9:41 PM,71.6,64.4,78,29.92,4.0,SW,9.2,-,0.01,Rain,Light Rain,220,2013-08-01 01:41:00
9:49 PM,71.6,64.4,78,29.92,4.0,SW,10.4,-,0.01,Rain,Light Rain,220,2013-08-01 01:49:00
9:53 PM,71.1,64.9,81,29.91,4.0,SW,9.2,-,0.01,Rain,Light Rain,230,2013-08-01 01:53:00
10:03 PM,71.6,64.4,78,29.92,2.0,SW,9.2,-,0.02,Rain,Light Rain,220,2013-08-01 02:03:00
10:23 PM,71.6,64.4,78,29.92,4.0,SW,8.1,-,0.04,Rain,Light Rain,230,2013-08-01 02:23:00
10:53 PM,72.0,64.9,78,29.90,10.0,West,10.4,-,0.04,,Overcast,280,2013-08-01 02:53:00
11:05 PM,71.6,64.4,78,29.92,10.0,WNW,8.1,-,N/A,,Overcast,290,2013-08-01 03:05:00
11:35 PM,69.8,64.4,83,29.91,10.0,West,9.2,-,N/A,,Mostly Cloudy,280,2013-08-01 03:35:00
11:53 PM,70.0,64.9,84,29.88,10.0,WNW,5.8,-,N/A,,Mostly Cloudy,300,2013-08-01 03:53:00